Weather History for KI35 - July, 2013

Change the Weather History Date:

Saturday, July 6, 2013

  Actual Average (KLOZ) Record (KLOZ)
Temperature  
Mean Temperature 73 °F 76 °F  
Max Temperature 82 °F 87 °F 97 °F (2012)
Min Temperature 64 °F 66 °F 50 °F (1964)
Degree Days  
Heating Degree Days 0 0  
Month to date heating degree days 0  
Since 1 June heating degree days 9  
Since 1 July heating degree days 0  
Cooling Degree Days 8 11  
Month to date cooling degree days 66  
Year to date cooling degree days 423  
Since 1 June cooling degree days 309  
Growing Degree Days 23 (Base 50)    
Moisture  
Dew Point 65 °F    
Average Humidity 86    
Maximum Humidity 100    
Minimum Humidity 54    
Precipitation  
Precipitation 0.00 in 0.14 in 2.95 in (1967)
Month to date precipitation 0.81  
Year to date precipitation 25.74  
Sea Level Pressure  
Sea Level Pressure 30.19 in    
Wind  
Wind Speed 2 mph (SE)    
Max Wind Speed 8 mph    
Max Gust Speed 18 mph    
Visibility 6 miles    
Events      
T = Trace of Precipitation, MM = Missing Value Source: NWS Daily Summary

Daily Weather History Graph

Daily Weather History Graph

Search for Another Location

Airport or City:

Trip Planner

Search our weather history database for the weather conditions in past years. The results will help you decide how hot, cold, wet, or windy it might be!

Date:

Astronomy

Jul. 06, 2013 Rise Set
Actual Time 6:20 AM EDT 8:55 PM EDT
Civil Twilight 5:50 AM EDT 9:26 PM EDT
Nautical Twilight 5:12 AM EDT 10:03 PM EDT
Astronomical Twilight 4:30 AM EDT 10:45 PM EDT
Moon 5:04 AM EDT (7/6) 7:37 PM EDT (7/6)
Length of Visible Light 15h 36m
Length of Day
14h 35m
Waning Crescent, 2% of the Moon is Illuminated
Jul 6
Waning Crescent
Jul 8
New
Jul 15
First Quarter
Jul 22
Full
Jul 29
Last Quarter

Hourly Weather History & Observations

Time (EDT) Temp. Heat Index Dew Point Humidity Pressure Visibility Wind Dir Wind Speed Gust Speed Precip Events Conditions
12:15 AM 68.0 °F - 66.2 °F 94% 30.21 in 0.2 mi East 3.5 mph - N/A   Overcast
12:35 AM 68.0 °F - 66.2 °F 94% 30.21 in 0.2 mi Calm Calm - N/A   Overcast
12:55 AM 68.0 °F - 66.2 °F 94% 30.22 in 0.5 mi Calm Calm - N/A   Overcast
1:15 AM 68.0 °F - 64.4 °F 88% 30.21 in 0.5 mi Calm Calm - N/A   Overcast
1:35 AM 68.0 °F - 64.4 °F 88% 30.21 in 2.5 mi Calm Calm - N/A   Mostly Cloudy
1:55 AM 68.0 °F - 64.4 °F 88% 30.21 in 1.2 mi Calm Calm - N/A   Overcast
2:15 AM 68.0 °F - 64.4 °F 88% 30.21 in 0.2 mi Calm Calm - N/A   Overcast
2:35 AM 68.0 °F - 64.4 °F 88% 30.20 in 0.5 mi Calm Calm - N/A   Overcast
2:55 AM 68.0 °F - 64.4 °F 88% 30.20 in 0.5 mi Calm Calm - N/A   Overcast
3:15 AM 68.0 °F - 64.4 °F 88% 30.21 in 2.0 mi NNE 5.8 mph - N/A   Overcast
3:35 AM 68.0 °F - 64.4 °F 88% 30.21 in 7.0 mi Calm Calm - N/A   Overcast
3:55 AM 68.0 °F - 64.4 °F 88% 30.20 in 3.0 mi NE 4.6 mph - N/A   Overcast
4:15 AM 68.0 °F - 64.4 °F 88% 30.19 in 10.0 mi NE 3.5 mph - N/A   Overcast
4:35 AM 68.0 °F - 64.4 °F 88% 30.19 in 10.0 mi Calm Calm - N/A   Mostly Cloudy
4:55 AM 68.0 °F - 64.4 °F 88% 30.17 in 1.0 mi ENE 3.5 mph - N/A   Overcast
5:15 AM 68.0 °F - 64.4 °F 88% 30.18 in 2.5 mi Calm Calm - N/A   Scattered Clouds
5:35 AM 68.0 °F - 64.4 °F 88% 30.18 in 3.0 mi Calm Calm - N/A   Clear
5:55 AM 66.2 °F - 64.4 °F 94% 30.18 in 7.0 mi Calm Calm - N/A   Scattered Clouds
6:15 AM 68.0 °F - 64.4 °F 88% 30.18 in 10.0 mi NNE 3.5 mph - N/A   Scattered Clouds
6:35 AM 68.0 °F - 64.4 °F 88% 30.18 in 10.0 mi Calm Calm - N/A   Scattered Clouds
6:55 AM 68.0 °F - 64.4 °F 88% 30.18 in 10.0 mi Calm Calm - N/A   Scattered Clouds
7:15 AM 68.0 °F - 64.4 °F 88% 30.18 in 10.0 mi SE 5.8 mph - N/A   Scattered Clouds
7:35 AM 68.0 °F - 64.4 °F 88% 30.18 in 10.0 mi ENE 3.5 mph - N/A   Mostly Cloudy
7:55 AM 69.8 °F - 64.4 °F 83% 30.19 in 10.0 mi Calm Calm - N/A   Mostly Cloudy
8:15 AM 69.8 °F - 64.4 °F 83% 30.19 in 10.0 mi ESE 5.8 mph - N/A   Mostly Cloudy
8:35 AM 69.8 °F - 64.4 °F 83% 30.19 in 10.0 mi North - - N/A   Overcast
8:55 AM 69.8 °F - 64.4 °F 83% 30.20 in 10.0 mi Calm Calm - N/A   Overcast
9:15 AM 69.8 °F - 64.4 °F 83% 30.21 in 10.0 mi SSW 3.5 mph - N/A   Overcast
9:35 AM 69.8 °F - 64.4 °F 83% 30.21 in 10.0 mi ENE 4.6 mph - N/A   Overcast
9:55 AM 69.8 °F - 66.2 °F 88% 30.21 in 10.0 mi Calm Calm - N/A   Overcast
10:15 AM 69.8 °F - 66.2 °F 88% 30.21 in 7.0 mi East 3.5 mph - N/A   Overcast
10:55 AM 73.4 °F - 66.2 °F 78% 30.20 in 10.0 mi SSE 4.6 mph - N/A   Mostly Cloudy
11:15 AM 75.2 °F - 68.0 °F 78% 30.20 in 10.0 mi East 4.6 mph - N/A   Mostly Cloudy
11:35 AM 77.0 °F - 68.0 °F 74% 30.19 in 10.0 mi SSW 4.6 mph - N/A   Overcast
11:55 AM 77.0 °F - 66.2 °F 69% 30.19 in 10.0 mi South 8.1 mph - N/A   Overcast
12:15 PM 77.0 °F - 66.2 °F 69% 30.19 in 10.0 mi South 4.6 mph - N/A   Overcast
12:35 PM 78.8 °F - 68.0 °F 69% 30.19 in 10.0 mi South 5.8 mph - N/A   Scattered Clouds
12:55 PM 78.8 °F - 66.2 °F 65% 30.18 in 10.0 mi ESE 3.5 mph - N/A   Clear
1:15 PM 78.8 °F - 66.2 °F 65% 30.17 in 10.0 mi ESE 3.5 mph - N/A   Scattered Clouds
1:35 PM 78.8 °F - 66.2 °F 65% 30.17 in 10.0 mi SSE 6.9 mph - N/A   Mostly Cloudy
1:55 PM 78.8 °F - 68.0 °F 69% 30.16 in 10.0 mi South 4.6 mph - N/A   Overcast
2:15 PM 78.8 °F - 66.2 °F 65% 30.15 in 10.0 mi South 5.8 mph - N/A   Mostly Cloudy
2:35 PM 80.6 °F 82.3 °F 64.4 °F 58% 30.14 in 10.0 mi Calm Calm - N/A   Mostly Cloudy
2:55 PM 82.4 °F 83.9 °F 64.4 °F 54% 30.13 in 10.0 mi South 4.6 mph - N/A   Scattered Clouds
3:15 PM 77.0 °F - 68.0 °F 74% 30.13 in 0.8 mi WSW 4.6 mph - N/A   Overcast
3:35 PM 73.4 °F - 68.0 °F 83% 30.14 in 10.0 mi NW 8.1 mph 18.4 mph N/A   Overcast
3:55 PM 69.8 °F - 66.2 °F 88% 30.17 in 5.0 mi WSW 5.8 mph - N/A   Overcast
4:15 PM 69.8 °F - 64.4 °F 83% 30.17 in 10.0 mi WSW 4.6 mph - N/A   Overcast
4:35 PM 68.0 °F - 64.4 °F 88% 30.16 in 1.5 mi West 6.9 mph - N/A   Overcast
4:55 PM 68.0 °F - 66.2 °F 94% 30.16 in 10.0 mi Calm Calm - N/A   Overcast
5:15 PM 68.0 °F - 64.4 °F 88% 30.16 in 10.0 mi West 4.6 mph - N/A   Overcast
5:35 PM 68.0 °F - 64.4 °F 88% 30.18 in 10.0 mi West 5.8 mph - N/A   Overcast
5:55 PM 68.0 °F - 64.4 °F 88% 30.18 in 10.0 mi West 4.6 mph - N/A   Overcast
6:15 PM 66.2 °F - 64.4 °F 94% 30.18 in 2.5 mi West 3.5 mph - N/A   Overcast
6:35 PM 66.2 °F - 64.4 °F 94% 30.18 in 2.5 mi SE 3.5 mph - N/A   Overcast
6:55 PM 66.2 °F - 64.4 °F 94% 30.19 in 1.2 mi East 3.5 mph - N/A   Overcast
7:15 PM 64.4 °F - 64.4 °F 100% 30.19 in 5.0 mi Calm Calm - N/A   Overcast
7:35 PM 66.2 °F - 64.4 °F 94% 30.17 in 10.0 mi Calm Calm - N/A   Mostly Cloudy
7:55 PM 64.4 °F - 64.4 °F 100% 30.18 in 7.0 mi Calm Calm - N/A   Mostly Cloudy
8:15 PM 64.4 °F - 64.4 °F 100% 30.18 in 2.0 mi Calm Calm - N/A   Overcast
8:35 PM 64.4 °F - 64.4 °F 100% 30.19 in 4.0 mi Calm Calm - N/A   Overcast
8:55 PM 64.4 °F - 64.4 °F 100% 30.18 in 1.5 mi Calm Calm - N/A   Overcast
9:15 PM 64.4 °F - 64.4 °F 100% 30.19 in 1.5 mi Calm Calm - N/A   Overcast
9:35 PM 64.4 °F - 64.4 °F 100% 30.19 in 10.0 mi Calm Calm - N/A   Overcast
9:55 PM 64.4 °F - 64.4 °F 100% 30.21 in 1.2 mi Calm Calm - N/A   Overcast
10:15 PM 64.4 °F - 62.6 °F 94% 30.21 in 2.5 mi NE 3.5 mph - N/A   Overcast
10:35 PM 64.4 °F - 62.6 °F 94% 30.21 in 3.0 mi East 3.5 mph - N/A   Mostly Cloudy
10:55 PM 64.4 °F - 62.6 °F 94% 30.21 in 2.5 mi East 3.5 mph - N/A   Mostly Cloudy
11:15 PM 64.4 °F - 62.6 °F 94% 30.20 in 2.0 mi Calm Calm - N/A   Overcast
11:35 PM 64.4 °F - 62.6 °F 94% 30.20 in 5.0 mi Calm Calm - N/A   Mostly Cloudy
11:55 PM 64.4 °F - 62.6 °F 94% 30.21 in 4.0 mi NE 3.5 mph - N/A   Mostly Cloudy